******** Week 356 almanac for PRN-1 ******** ID: 1 Health: 0 Eccentricity: 0.001485347748 Time of Applicability(s): 589824 Orbital Inclination(rad): 0.9584168152 Rate of Right Ascen(r/s): -7.966046103e-09 SQRT(A) (m 1/2): 5153.580078 Right Ascen at Week(rad): -2.648061301 Argument of Perigee(rad): 0.03474114449 Mean Anom(rad): 1.379759169 Af0(s): 0.0002645396851 Af1(s/s): -3.637979e-12 week: 356 ******** Week 356 almanac for PRN-2 ******** ID: 2 Health: 0 Eccentricity: 0.01695108414 Time of Applicability(s): 589824 Orbital Inclination(rad): 0.9638217006 Rate of Right Ascen(r/s): -7.908900866e-09 SQRT(A) (m 1/2): 5153.554688 Right Ascen at Week(rad): -2.8106363 Argument of Perigee(rad): -0.8300000783 Mean Anom(rad): 2.804949036 Af0(s): 2.637860107e-05 Af1(s/s): 7.275958e-12 week: 356 ******** Week 356 almanac for PRN-3 ******** ID: 3 Health: 0 Eccentricity: 0.006395816803 Time of Applicability(s): 589824 Orbital Inclination(rad): 0.9928175328 Rate of Right Ascen(r/s): -7.566029441e-09 SQRT(A) (m 1/2): 5153.597168 Right Ascen at Week(rad): -1.661712403 Argument of Perigee(rad): 1.204868881 Mean Anom(rad): -0.8033748756 Af0(s): 0.0004552192871 Af1(s/s): -1.091394e-11 week: 356 ******** Week 356 almanac for PRN-4 ******** ID: 4 Health: 0 Eccentricity: 0.003731250763 Time of Applicability(s): 589824 Orbital Inclination(rad): 0.9704909218 Rate of Right Ascen(r/s): -7.920329913e-09 SQRT(A) (m 1/2): 5153.6875 Right Ascen at Week(rad): -0.5905092002 Argument of Perigee(rad): -2.894722116 Mean Anom(rad): 2.214409501 Af0(s): 3.391534424e-05 Af1(s/s): 3.637979e-12 week: 356 ******** Week 356 almanac for PRN-5 ******** ID: 5 Health: 0 Eccentricity: 0.005366325378 Time of Applicability(s): 589824 Orbital Inclination(rad): 0.9793952009 Rate of Right Ascen(r/s): -7.691748963e-09 SQRT(A) (m 1/2): 5153.647461 Right Ascen at Week(rad): -1.721177752 Argument of Perigee(rad): 1.420271092 Mean Anom(rad): 2.852886685 Af0(s): -0.0001808818359 Af1(s/s): 0 week: 356 ******** Week 356 almanac for PRN-6 ******** ID: 6 Health: 0 Eccentricity: 0.003871440887 Time of Applicability(s): 589824 Orbital Inclination(rad): 0.9873467341 Rate of Right Ascen(r/s): -7.668890868e-09 SQRT(A) (m 1/2): 5153.578613 Right Ascen at Week(rad): -2.698168469 Argument of Perigee(rad): -0.5945684819 Mean Anom(rad): 0.5469094665 Af0(s): -0.0004808442139 Af1(s/s): -3.637979e-12 week: 356 ******** Week 356 almanac for PRN-7 ******** ID: 7 Health: 0 Eccentricity: 0.02032136917 Time of Applicability(s): 589824 Orbital Inclination(rad): 0.9512083039 Rate of Right Ascen(r/s): -7.863184676e-09 SQRT(A) (m 1/2): 5153.578613 Right Ascen at Week(rad): 0.4180292392 Argument of Perigee(rad): -1.998950739 Mean Anom(rad): -0.3410141159 Af0(s): -0.0001153121704 Af1(s/s): -3.637979e-12 week: 356 ******** Week 356 almanac for PRN-8 ******** ID: 8 Health: 0 Eccentricity: 0.01151704788 Time of Applicability(s): 589824 Orbital Inclination(rad): 0.9437780845 Rate of Right Ascen(r/s): -8.251772291e-09 SQRT(A) (m 1/2): 5153.620117 Right Ascen at Week(rad): 2.466081969 Argument of Perigee(rad): 0.5124765412 Mean Anom(rad): 2.499837785 Af0(s): 0.0003911569702 Af1(s/s): -3.637979e-12 week: 356 ******** Week 356 almanac for PRN-9 ******** ID: 9 Health: 0 Eccentricity: 0.003315925598 Time of Applicability(s): 589824 Orbital Inclination(rad): 0.9646066674 Rate of Right Ascen(r/s): -7.988904198e-09 SQRT(A) (m 1/2): 5153.509766 Right Ascen at Week(rad): -0.6545914723 Argument of Perigee(rad): 2.067693751 Mean Anom(rad): 3.104623568 Af0(s): 0.0006089688477 Af1(s/s): 0 week: 356 ******** Week 356 almanac for PRN-10 ******** ID: 10 Health: 0 Eccentricity: 0.01096630096 Time of Applicability(s): 589824 Orbital Inclination(rad): 0.992350148 Rate of Right Ascen(r/s): -7.577458489e-09 SQRT(A) (m 1/2): 5153.60791 Right Ascen at Week(rad): -1.664222349 Argument of Perigee(rad): -2.259241363 Mean Anom(rad): -1.78478852 Af0(s): -0.0004642633789 Af1(s/s): 0 week: 356 ******** Week 356 almanac for PRN-11 ******** ID: 11 Health: 0 Eccentricity: 0.002219200134 Time of Applicability(s): 589824 Orbital Inclination(rad): 0.9641992037 Rate of Right Ascen(r/s): -7.908900866e-09 SQRT(A) (m 1/2): 5153.515137 Right Ascen at Week(rad): -2.678872743 Argument of Perigee(rad): -2.29024605 Mean Anom(rad): 1.579670271 Af0(s): -0.0003527195801 Af1(s/s): 1.455192e-11 week: 356 ******** Week 356 almanac for PRN-12 ******** ID: 12 Health: 0 Eccentricity: 0.009057998657 Time of Applicability(s): 589824 Orbital Inclination(rad): 0.9588482473 Rate of Right Ascen(r/s): -7.828897533e-09 SQRT(A) (m 1/2): 5153.738281 Right Ascen at Week(rad): 1.535749211 Argument of Perigee(rad): 1.551478506 Mean Anom(rad): -0.9727872495 Af0(s): -0.0004800905395 Af1(s/s): 0 week: 356 ******** Week 356 almanac for PRN-13 ******** ID: 13 Health: 0 Eccentricity: 0.009947776794 Time of Applicability(s): 589824 Orbital Inclination(rad): 0.9762133892 Rate of Right Ascen(r/s): -7.851755628e-09 SQRT(A) (m 1/2): 5153.618164 Right Ascen at Week(rad): -0.4798105402 Argument of Perigee(rad): 0.9995525178 Mean Anom(rad): 2.237736795 Af0(s): 0.0005433991821 Af1(s/s): 0 week: 356 ******** Week 356 almanac for PRN-14 ******** ID: 14 Health: 0 Eccentricity: 0.006598472595 Time of Applicability(s): 589824 Orbital Inclination(rad): 0.9422141431 Rate of Right Ascen(r/s): -8.000333246e-09 SQRT(A) (m 1/2): 5153.597168 Right Ascen at Week(rad): 1.481459923 Argument of Perigee(rad): -2.758120677 Mean Anom(rad): -1.154587941 Af0(s): 0.0005795755493 Af1(s/s): 3.637979e-12 week: 356 ******** Week 356 almanac for PRN-15 ******** ID: 15 Health: 0 Eccentricity: 0.01659917831 Time of Applicability(s): 589824 Orbital Inclination(rad): 0.9423819223 Rate of Right Ascen(r/s): -8.217485148e-09 SQRT(A) (m 1/2): 5153.625 Right Ascen at Week(rad): -0.7980804697 Argument of Perigee(rad): 1.497626268 Mean Anom(rad): 1.496759658 Af0(s): 0.0003037307495 Af1(s/s): 3.637979e-12 week: 356 ******** Week 356 almanac for PRN-16 ******** ID: 16 Health: 0 Eccentricity: 0.01505947113 Time of Applicability(s): 589824 Orbital Inclination(rad): 0.9579973673 Rate of Right Ascen(r/s): -7.863184676e-09 SQRT(A) (m 1/2): 5153.586914 Right Ascen at Week(rad): 1.552772053 Argument of Perigee(rad): 0.9258622678 Mean Anom(rad): -2.770959902 Af0(s): 0.0001605326294 Af1(s/s): 7.275958e-12 week: 356 ******** Week 356 almanac for PRN-17 ******** ID: 17 Health: 0 Eccentricity: 0.01273775101 Time of Applicability(s): 589824 Orbital Inclination(rad): 0.9595493245 Rate of Right Ascen(r/s): -8.114623721e-09 SQRT(A) (m 1/2): 5153.524414 Right Ascen at Week(rad): 2.570415882 Argument of Perigee(rad): -1.127479999 Mean Anom(rad): 2.407513189 Af0(s): -4.446678467e-05 Af1(s/s): -1.091394e-11 week: 356 ******** Week 356 almanac for PRN-18 ******** ID: 18 Health: 0 Eccentricity: 0.005707740784 Time of Applicability(s): 589824 Orbital Inclination(rad): 0.9723065319 Rate of Right Ascen(r/s): -7.828897533e-09 SQRT(A) (m 1/2): 5153.596191 Right Ascen at Week(rad): -2.702874524 Argument of Perigee(rad): -2.860433376 Mean Anom(rad): 0.4240801493 Af0(s): -0.000340660791 Af1(s/s): 1.091394e-11 week: 356 ******** Week 356 almanac for PRN-19 ******** ID: 19 Health: 0 Eccentricity: 0.01103305817 Time of Applicability(s): 589824 Orbital Inclination(rad): 0.9587643577 Rate of Right Ascen(r/s): -8.114623721e-09 SQRT(A) (m 1/2): 5153.659668 Right Ascen at Week(rad): 2.614316719 Argument of Perigee(rad): 2.922518402 Mean Anom(rad): -2.034061896 Af0(s): 0.0005449065308 Af1(s/s): 0 week: 356 ******** Week 356 almanac for PRN-20 ******** ID: 20 Health: 255 Eccentricity: 0.0004858970642 Time of Applicability(s): 589824 Orbital Inclination(rad): 0.9595972614 Rate of Right Ascen(r/s): -8.034620388e-09 SQRT(A) (m 1/2): 5153.592773 Right Ascen at Week(rad): -0.6489371652 Argument of Perigee(rad): 1.049736834 Mean Anom(rad): 2.215060394 Af0(s): 0 Af1(s/s): 0 week: 356 ******** Week 356 almanac for PRN-21 ******** ID: 21 Health: 0 Eccentricity: 0.0006551742554 Time of Applicability(s): 589824 Orbital Inclination(rad): 0.9622337908 Rate of Right Ascen(r/s): -7.874613723e-09 SQRT(A) (m 1/2): 5153.703125 Right Ascen at Week(rad): -1.654769042 Argument of Perigee(rad): -0.4254987819 Mean Anom(rad): -1.179015911 Af0(s): 0.000312021167 Af1(s/s): 7.275958e-12 week: 356 ******** Week 356 almanac for PRN-22 ******** ID: 22 Health: 0 Eccentricity: 0.01215839386 Time of Applicability(s): 589824 Orbital Inclination(rad): 0.9574341088 Rate of Right Ascen(r/s): -7.874613723e-09 SQRT(A) (m 1/2): 5153.577637 Right Ascen at Week(rad): 1.556118648 Argument of Perigee(rad): -0.9947187556 Mean Anom(rad): 3.057774986 Af0(s): -3.919106445e-05 Af1(s/s): 3.637979e-12 week: 356 ******** Week 356 almanac for PRN-23 ******** ID: 23 Health: 0 Eccentricity: 0.006013870239 Time of Applicability(s): 589824 Orbital Inclination(rad): 0.9873647105 Rate of Right Ascen(r/s): -7.623174678e-09 SQRT(A) (m 1/2): 5153.658203 Right Ascen at Week(rad): -1.696211241 Argument of Perigee(rad): -2.740576895 Mean Anom(rad): -0.6935787775 Af0(s): 0.0004815978882 Af1(s/s): 3.637979e-12 week: 356 ******** Week 356 almanac for PRN-24 ******** ID: 24 Health: 0 Eccentricity: 0.01786470413 Time of Applicability(s): 589824 Orbital Inclination(rad): 0.9352453163 Rate of Right Ascen(r/s): -8.080336578e-09 SQRT(A) (m 1/2): 5153.594238 Right Ascen at Week(rad): 0.3099790929 Argument of Perigee(rad): 1.132214142 Mean Anom(rad): 0.6404287401 Af0(s): -0.0001032533813 Af1(s/s): 1.455192e-11 week: 356 ******** Week 356 almanac for PRN-25 ******** ID: 25 Health: 0 Eccentricity: 0.01295232773 Time of Applicability(s): 589824 Orbital Inclination(rad): 0.947217557 Rate of Right Ascen(r/s): -7.931758961e-09 SQRT(A) (m 1/2): 5153.683105 Right Ascen at Week(rad): 1.442149044 Argument of Perigee(rad): 1.153820951 Mean Anom(rad): -1.121996467 Af0(s): 0.0003519659058 Af1(s/s): -3.637979e-12 week: 356 ******** Week 356 almanac for PRN-26 ******** ID: 26 Health: 0 Eccentricity: 0.01099586487 Time of Applicability(s): 589824 Orbital Inclination(rad): 0.9280248208 Rate of Right Ascen(r/s): -8.126052768e-09 SQRT(A) (m 1/2): 5153.649902 Right Ascen at Week(rad): 1.368019871 Argument of Perigee(rad): 0.7059427526 Mean Anom(rad): -1.946516384 Af0(s): -0.0002554955933 Af1(s/s): -7.275958e-12 week: 356 ******** Week 356 almanac for PRN-27 ******** ID: 27 Health: 0 Eccentricity: 0.01428508759 Time of Applicability(s): 589824 Orbital Inclination(rad): 0.9529040717 Rate of Right Ascen(r/s): -8.171768958e-09 SQRT(A) (m 1/2): 5153.610352 Right Ascen at Week(rad): 2.497907576 Argument of Perigee(rad): 0.8729923616 Mean Anom(rad): 2.595138214 Af0(s): -2.863962402e-05 Af1(s/s): -1.091394e-11 week: 356 ******** Week 356 almanac for PRN-28 ******** ID: 28 Health: 0 Eccentricity: 0.0004053115845 Time of Applicability(s): 589824 Orbital Inclination(rad): 0.9621738697 Rate of Right Ascen(r/s): -7.771752296e-09 SQRT(A) (m 1/2): 5153.729004 Right Ascen at Week(rad): 0.3920347064 Argument of Perigee(rad): 0.1998860108 Mean Anom(rad): -0.1874388952 Af0(s): -0.0004733074707 Af1(s/s): 7.275958e-12 week: 356 ******** Week 356 almanac for PRN-29 ******** ID: 29 Health: 0 Eccentricity: 0.003297805786 Time of Applicability(s): 589824 Orbital Inclination(rad): 0.9621978382 Rate of Right Ascen(r/s): -8.091765626e-09 SQRT(A) (m 1/2): 5153.719238 Right Ascen at Week(rad): 2.587069086 Argument of Perigee(rad): 2.74194834 Mean Anom(rad): 2.468524504 Af0(s): -0.0002999623779 Af1(s/s): 7.275958e-12 week: 356 ******** Week 356 almanac for PRN-30 ******** ID: 30 Health: 0 Eccentricity: 0.007963657379 Time of Applicability(s): 589824 Orbital Inclination(rad): 0.9364677073 Rate of Right Ascen(r/s): -8.023191341e-09 SQRT(A) (m 1/2): 5153.715332 Right Ascen at Week(rad): 0.4093646446 Argument of Perigee(rad): -2.334482446 Mean Anom(rad): -0.4775294179 Af0(s): 8.968724365e-05 Af1(s/s): 1.091394e-11 week: 356 ******** Week 356 almanac for PRN-31 ******** ID: 31 Health: 0 Eccentricity: 0.01084041595 Time of Applicability(s): 589824 Orbital Inclination(rad): 0.9549713505 Rate of Right Ascen(r/s): -7.817468486e-09 SQRT(A) (m 1/2): 5153.717773 Right Ascen at Week(rad): 0.4421426233 Argument of Perigee(rad): 0.9355047003 Mean Anom(rad): -1.426610747 Af0(s): -0.0001326466797 Af1(s/s): 3.637979e-12 week: 356 ******** Week 356 almanac for PRN-32 ******** ID: 32 Health: 0 Eccentricity: 0.009274959564 Time of Applicability(s): 589824 Orbital Inclination(rad): 0.9676806211 Rate of Right Ascen(r/s): -7.931758961e-09 SQRT(A) (m 1/2): 5153.66748 Right Ascen at Week(rad): -0.6376656272 Argument of Perigee(rad): -2.012989884 Mean Anom(rad): -3.093913791 Af0(s): -8.215050049e-05 Af1(s/s): 1.818989e-11 week: 356